When you browse on this site, cookies collect data to enhance your experience and personalize the content and advertising you see.
Visit our Privacy Policy to learn more. By continuing to use the site, you agree to this use of cookies and data.
  • En España
  • Lista de países
  • Para 7 días
  • Temperatura del agua
  • Mapa Satelital
  • El tiempo en el mapa
  • Informadores
  • user-avatar
    Iniciar sesión

    Tiempo cada hora Kota

    Hoy, 18 Abril, Jueves

    Tiempo Temperatura Precipitaciones Viento Presión Humedad
    00:00 +28°C° 0 mm 1 mps 735 mmHg 35%
    01:00 +27°C° 0 mm 1 mps 735 mmHg 37%
    02:00 +27°C° 0 mm 1 mps 734 mmHg 39%
    03:00 +26°C° 0 mm 1 mps 735 mmHg 39%
    04:00 +26°C° 0 mm 1 mps 735 mmHg 40%
    05:00 +26°C° 0 mm 1 mps 735 mmHg 41%
    06:00 +27°C° 0 mm 1 mps 735 mmHg 39%
    07:00 +28°C° 0 mm 1 mps 736 mmHg 36%
    08:00 +29°C° 0 mm 1 mps 736 mmHg 33%
    09:00 +30°C° 0 mm 1 mps 736 mmHg 31%
    10:00 +31°C° 0 mm 2 mps 736 mmHg 28%
    11:00 +34°C° 0 mm 3 mps 736 mmHg 24%
    12:00 +34°C° 0 mm 3 mps 736 mmHg 23%
    13:00 +35°C° 0 mm 3 mps 735 mmHg 22%
    14:00 +36°C° 0 mm 3 mps 735 mmHg 20%
    15:00 +36°C° 0 mm 4 mps 734 mmHg 20%
    16:00 +36°C° 0 mm 4 mps 734 mmHg 20%
    17:00 +35°C° 0 mm 4 mps 734 mmHg 20%
    18:00 +34°C° 0 mm 3 mps 734 mmHg 23%
    19:00 +34°C° 0 mm 3 mps 734 mmHg 25%
    20:00 +32°C° 0 mm 2 mps 735 mmHg 27%
    21:00 +31°C° 0 mm 2 mps 735 mmHg 28%
    22:00 +31°C° 0 mm 2 mps 735 mmHg 29%
    23:00 +30°C° 0 mm 2 mps 735 mmHg 30%

    Mañana, 19 Abril, Viernes

    Tiempo Temperatura Precipitaciones Viento Presión Humedad
    00:00 +29°C° 0 mm 3 mps 735 mmHg 33%
    01:00 +29°C° 0 mm 4 mps 734 mmHg 35%
    02:00 +28°C° 0 mm 5 mps 734 mmHg 38%
    03:00 +28°C° 0 mm 4 mps 734 mmHg 40%
    04:00 +27°C° 0 mm 4 mps 734 mmHg 41%
    05:00 +27°C° 0 mm 3 mps 734 mmHg 43%
    06:00 +28°C° 0 mm 3 mps 735 mmHg 40%
    07:00 +29°C° 0 mm 3 mps 735 mmHg 38%
    08:00 +30°C° 0 mm 3 mps 736 mmHg 35%
    09:00 +31°C° 0 mm 3 mps 736 mmHg 32%
    10:00 +33°C° 0 mm 3 mps 736 mmHg 29%
    11:00 +34°C° 0 mm 3 mps 736 mmHg 25%
    12:00 +35°C° 0 mm 3 mps 735 mmHg 23%
    13:00 +36°C° 0 mm 3 mps 734 mmHg 21%
    14:00 +36°C° 0 mm 4 mps 734 mmHg 19%
    15:00 +36°C° 0 mm 4 mps 733 mmHg 19%
    16:00 +36°C° 0 mm 4 mps 733 mmHg 19%
    17:00 +36°C° 0 mm 4 mps 732 mmHg 19%
    18:00 +35°C° 0 mm 3 mps 733 mmHg 21%
    19:00 +35°C° 0 mm 2 mps 733 mmHg 23%
    20:00 +31°C° 0 mm 0 mps 734 mmHg 24%
    21:00 +30°C° 0 mm 0 mps 734 mmHg 25%
    22:00 +30°C° 0 mm 0 mps 734 mmHg 26%
    23:00 +29°C° 0 mm 0 mps 734 mmHg 26%

    Pasado mañana, 20 Abril, Sábado

    Tiempo Temperatura Precipitaciones Viento Presión Humedad
    00:00 +31°C° 0 mm 1 mps 733 mmHg 27%
    01:00 +30°C° 0 mm 1 mps 733 mmHg 28%
    02:00 +30°C° 0 mm 1 mps 732 mmHg 29%
    03:00 +29°C° 0 mm 1 mps 732 mmHg 30%
    04:00 +29°C° 0 mm 1 mps 732 mmHg 31%
    05:00 +28°C° 0 mm 1 mps 732 mmHg 32%
    06:00 +29°C° 0 mm 1 mps 733 mmHg 30%
    07:00 +30°C° 0 mm 1 mps 733 mmHg 28%
    08:00 +31°C° 0 mm 1 mps 734 mmHg 26%
    09:00 +34°C° 0 mm 2 mps 734 mmHg 23%
    10:00 +35°C° 0 mm 3 mps 734 mmHg 21%
    11:00 +37°C° 0 mm 4 mps 734 mmHg 18%
    12:00 +38°C° 0 mm 4 mps 733 mmHg 17%
    13:00 +38°C° 0 mm 4 mps 733 mmHg 15%
    14:00 +40°C° 0 mm 4 mps 732 mmHg 13%
    15:00 +40°C° 0 mm 4 mps 732 mmHg 13%
    16:00 +40°C° 0 mm 4 mps 731 mmHg 13%
    17:00 +40°C° 0 mm 4 mps 731 mmHg 13%
    18:00 +38°C° 0 mm 3 mps 731 mmHg 15%
    19:00 +37°C° 0 mm 2 mps 732 mmHg 16%
    20:00 +34°C° 0 mm 1 mps 732 mmHg 18%
    21:00 +34°C° 0 mm 1 mps 732 mmHg 18%
    22:00 +33°C° 0 mm 1 mps 732 mmHg 19%
    23:00 +33°C° 0 mm 1 mps 733 mmHg 20%

    21 Abril, Domingo

    Tiempo Temperatura Precipitaciones Viento Presión Humedad
    00:00 +30°C° 0 mm 0 mps 732 mmHg 20%
    01:00 +30°C° 0 mm 0 mps 732 mmHg 21%
    02:00 +30°C° 0 mm 0 mps 731 mmHg 22%
    03:00 +29°C° 0 mm 0 mps 731 mmHg 22%
    04:00 +29°C° 0 mm 0 mps 731 mmHg 22%
    05:00 +30°C° 0 mm 1 mps 731 mmHg 23%
    06:00 +32°C° 0 mm 1 mps 732 mmHg 21%
    07:00 +34°C° 0 mm 2 mps 732 mmHg 20%
    08:00 +36°C° 0 mm 3 mps 733 mmHg 18%
    09:00 +37°C° 0 mm 3 mps 733 mmHg 17%
    10:00 +39°C° 0 mm 3 mps 733 mmHg 15%
    11:00 +40°C° 0 mm 3 mps 733 mmHg 13%
    12:00 +40°C° 0 mm 3 mps 733 mmHg 12%
    13:00 +42°C° 0 mm 3 mps 732 mmHg 12%
    14:00 +43°C° 0 mm 3 mps 731 mmHg 11%
    15:00 +43°C° 0 mm 3 mps 731 mmHg 10%
    16:00 +43°C° 0 mm 3 mps 731 mmHg 10%
    17:00 +42°C° 0 mm 2 mps 730 mmHg 10%
    18:00 +40°C° 0 mm 2 mps 731 mmHg 11%
    19:00 +39°C° 0 mm 1 mps 731 mmHg 12%
    20:00 +35°C° 0 mm 0 mps 732 mmHg 14%
    21:00 +34°C° 0 mm 0 mps 732 mmHg 14%
    22:00 +36°C° 0 mm 1 mps 732 mmHg 14%
    23:00 +35°C° 0 mm 1 mps 732 mmHg 15%

    22 Abril, Lunes

    Tiempo Temperatura Precipitaciones Viento Presión Humedad
    00:00 +35°C° 0 mm 1 mps 731 mmHg 15%
    01:00 +35°C° 0 mm 2 mps 731 mmHg 16%
    02:00 +34°C° 0 mm 3 mps 731 mmHg 17%
    03:00 +34°C° 0 mm 3 mps 731 mmHg 17%
    04:00 +33°C° 0 mm 3 mps 731 mmHg 17%
    05:00 +31°C° 0 mm 3 mps 731 mmHg 18%
    06:00 +34°C° 0 mm 4 mps 732 mmHg 17%
    07:00 +35°C° 0 mm 4 mps 732 mmHg 17%
    08:00 +36°C° 0 mm 5 mps 733 mmHg 17%
    09:00 +39°C° 0 mm 5 mps 733 mmHg 15%
    10:00 +41°C° 0 mm 5 mps 733 mmHg 12%
    11:00 +45°C° 0 mm 5 mps 733 mmHg 10%
    12:00 +44°C° 0 mm 4 mps 733 mmHg 10%
    13:00 +45°C° 0 mm 4 mps 732 mmHg 9%
    14:00 +45°C° 0 mm 4 mps 732 mmHg 8%
    15:00 +45°C° 0 mm 4 mps 731 mmHg 8%
    16:00 +45°C° 0 mm 4 mps 731 mmHg 8%
    17:00 +44°C° 0 mm 4 mps 731 mmHg 8%
    18:00 +43°C° 0 mm 3 mps 731 mmHg 9%
    19:00 +42°C° 0 mm 3 mps 732 mmHg 10%
    20:00 +39°C° 0 mm 2 mps 732 mmHg 11%
    21:00 +39°C° 0 mm 2 mps 732 mmHg 11%
    22:00 +38°C° 0 mm 2 mps 732 mmHg 11%
    23:00 +38°C° 0 mm 2 mps 732 mmHg 12%

    23 Abril, Martes

    Tiempo Temperatura Precipitaciones Viento Presión Humedad
    00:00 +37°C° 0 mm 2 mps 732 mmHg 12%
    01:00 +36°C° 0 mm 2 mps 731 mmHg 12%
    02:00 +36°C° 0 mm 2 mps 731 mmHg 13%
    03:00 +35°C° 0 mm 3 mps 731 mmHg 14%
    04:00 +34°C° 0 mm 3 mps 732 mmHg 15%
    05:00 +34°C° 0 mm 4 mps 732 mmHg 17%
    06:00 +35°C° 0 mm 4 mps 732 mmHg 16%
    07:00 +36°C° 0 mm 5 mps 733 mmHg 16%
    08:00 +37°C° 0 mm 5 mps 734 mmHg 15%
    09:00 +40°C° 0 mm 5 mps 734 mmHg 14%
    10:00 +42°C° 0 mm 4 mps 734 mmHg 12%
    11:00 +43°C° 0 mm 3 mps 734 mmHg 11%
    12:00 +44°C° 0 mm 3 mps 733 mmHg 10%
    13:00 +45°C° 0 mm 2 mps 733 mmHg 9%
    14:00 +45°C° 0 mm 2 mps 732 mmHg 8%
    15:00 +45°C° 0 mm 2 mps 732 mmHg 8%
    16:00 +44°C° 0 mm 1 mps 731 mmHg 8%
    17:00 +44°C° 0 mm 1 mps 731 mmHg 8%
    18:00 +43°C° 0 mm 1 mps 732 mmHg 9%
    19:00 +42°C° 0 mm 1 mps 732 mmHg 10%
    20:00 +38°C° 0 mm 0 mps 732 mmHg 11%
    21:00 +40°C° 0 mm 1 mps 732 mmHg 11%
    22:00 +39°C° 0 mm 2 mps 732 mmHg 11%
    23:00 +39°C° 0 mm 2 mps 732 mmHg 12%
    Mostrar más